CAPE
0 0 0 0 0 0 0 0 0 0 0 0 0 0 0 0 0 0 0 0 0 0 0 0 0 57 7 0 0 0 0 0 0 0 0 0 0 0 0 0 0 0 0 0
0 0 0 0 0 0 0 0 0 0 0 0 0 0 0 0 0 0 0 0 0 0 0 0 0 0 0 0 0 0 0 0 0 0 0 0 0 0 0 0 0 0 0 0
0 0 0 0 0 0 0 0 0 0 0 0 0 0 0 0 0 0 0 0 0 0 0 0 0 0 0 0 0 0 0 0 0 0 0 0 0 0 0 0 0 0 0 0
0 0 0 0 0 0 0 0 0 0 0 0 0 0 0 0 0 0 0 0 0 0 0 0 0 0 0 0 0 0 0 0 0 0 0 0 0 0 0 0 0 0 0 0
1 0 0 0 0 0 0 0 0 0 0 0 0 0 0 0 0 0 0 0 0 0 0 0 0 0 0 0 0 0 0 0 0 0 0 0 0 0 0 0 0 0 0 0
0 2 1 0 0 0 0 0 0 0 0 0 0 0 0 0 0 0 0 0 0 0 0 0 0 0 0 0 0 0 0 0 0 0 0 0 0 0 0 0 0 0 0 0
9 13 0 0 0 0 0 0 0 0 0 0 0 0 0 0 0 0 0 0 0 0 0 0 0 0 0 0 0 0 0 0 0 0 0 0 0 0 0 0 0 0 0 0
0 0 0 0 0 0 0 0 0 0 0 0 0 0 0 0 0 0 0 0 0 0 0 0 0 0 0 0 0 0 0 0 0 0 0 0 0 0 0 0 0 0 0 0
0 0 0 0 0 0 0 0 0 0 0 0 0 0 0 0 0 0 0 0 0 0 0 0 0 0 0 0 0 0 0 0 0 0 0 0 0 0 0 0 0 0 0 0
0 0 0 0 0 0 0 0 0 0 0 0 0 0 0 0 0 0 0 0 0 0 0 0 0 0 0 0 0 0 0 0 0 0 0 0 0 0 0 0 0 0 0 0
0 0 0 0 0 0 0 0 0 0 0 0 0 0 0 0 0 0 0 0 0 0 0 0 0 0 0 0 0 0 0 0 0 0 0 0 0 0 0 0 0 0 0 0
0 0 0 0 0 0 0 0 0 0 0 0 0 0 0 0 0 0 0 0 0 0 0 0 0 0 0 0 0 0 0 0 0 0 0 0 0 0 0 0 0 0 0 0
9 6 2 2 1 2 4 6 6 4 5 5 7 8 7 6 5 2 0 0 0 0 0 0 0 0 0 0 0 0 0 0 0 0 0 0 0 0 0 0 0 0 0 0
3 5 0 0 2 5 3 4 7 5 5 6 8 11 12 12 10 4 2 0 0 0 0 0 0 0 0 0 0 0 0 0 0 0 0 0 0 0 0 0 0 0 0 0
1 2 2 1 1 2 2 2 2 3 3 4 10 8 4 3 3 3 2 0 0 0 0 0 0 0 0 0 0 0 0 0 0 0 0 0 0 0 0 0 0 0 0 0
0 0 0 0 0 0 0 1 2 3 2 2 1 1 1 0 1 2 3 1 2 4 1 0 2 0 0 0 0 0 0 0 0 0 0 0 0 0 0 0 0 0 0 0
0 0 0 0 0 0 0 0 0 0 0 0 0 0 0 0 0 0 0 0 0 0 0 0 0 0 0 1 0 0 0 0 1 0 0 0 0 0 0 0 0 0 0 0
0 0 0 0 0 0 0 0 0 0 0 0 0 0 0 0 0 0 0 0 0 0 0 0 0 0 0 0 0 0 0 1 1 1 0 0 0 0 0 0 0 0 0 0
0 0 0 0 0 0 0 0 0 0 0 0 0 0 0 0 0 0 0 0 0 0 0 0 0 0 0 0 0 0 0 0 0 0 0 0 0 0 0 0 0 0 0 0
0 0 0 0 0 0 0 0 0 0 0 0 0 0 0 0 0 0 0 0 0 0 0 0 0 0 0 0 0 0 0 0 0 0 0 0 0 0 0 0 0 0 0 0
0 0 0 0 0 0 0 0 0 0 0 0 0 0 0 0 0 0 0 0 0 0 0 0 0 0 0 0 0 0 0 0 0 0 0 0 0 0 0 0 0 0 0 0
0 0 0 0 0 0 0 0 0 0 0 0 0 0 0 0 0 0 0 0 0 0 0 0 0 0 0 1 0 0 0 0 0 0 0 0 0 0 0 0 0 0 0 0
0 0 0 0 0 0 0 0 0 0 0 0 0 0 0 0 0 0 0 0 0 0 0 0 0 3 5 0 0 0 0 0 0 0 0 0 0 0 0 0 0 0 0 0
0 0 0 0 0 0 0 0 0 0 0 0 0 0 0 0 0 0 0 0 0 0 0 0 0 5 7 0 0 0 0 0 0 0 0 0 0 0 0 0 0 0 0 0
0 0 0 0 0 0 0 0 0 0 0 0 0 0 0 0 0 0 0 0 0 0 0 0 1 2 0 0 0 0 0 0 0 0 0 0 0 0 0 0 0 0 0 0
0 0 0 0 0 0 0 0 0 0 0 0 0 0 0 0 0 0 0 0 0 0 0 0 0 0 0 0 0 0 0 0 0 0 0 0 0 0 0 0 0 0 0 0
0 1 0 0 0 0 0 0 0 0 0 0 0 0 0 0 0 0 0 0 0 0 0 0 0 0 0 0 0 0 0 0 0 0 0 0 0 0 0 0 0 0 0 0
CIN
-0 -0 -0 -0 -0 -0 -0 -0 -0 -0 -0 -0 -0 -0 -0 -0 -0 -0 -0 -0 -0 -0 -0 -0 -0 -268 -266 -0 -0 -0 -0 -0 -0 -0 -0 -0 -0 -0 -0 -0 -0 -0 -0 -0
-0 -0 -0 -0 -0 -0 -0 -0 -0 -0 -0 -0 -0 -0 -0 -0 -0 -0 -0 -0 -0 -0 -0 -0 -0 -0 -0 -0 -0 -0 -0 -0 -0 -0 -0 -0 -0 -0 -0 -0 -0 -0 -0 -0
-0 -0 -0 -0 -0 -0 -0 -0 -0 -0 -0 -0 -0 -0 -0 -0 -0 -0 -0 -0 -0 -0 -0 -0 -0 -0 -0 -0 -0 -0 -0 -0 -0 -0 -0 -0 -0 -0 -0 -0 -0 -0 -0 -0
-0 -0 -0 -0 -0 -0 -0 -0 -0 -0 -0 -0 -0 -0 -0 -0 -0 -0 -0 -0 -0 -0 -0 -0 -0 -0 -0 -0 -0 -0 -0 -0 -0 -0 -0 -0 -0 -0 -0 -0 -0 -0 -0 -0
-4 -0 -0 -0 -0 -0 -0 -0 -0 -0 -0 -0 -0 -0 -0 -0 -0 -0 -0 -0 -0 -0 -0 -0 -0 -0 -0 -0 -0 -0 -0 -0 -0 -0 -0 -0 -0 -0 -0 -0 -0 -0 -0 -0
-0 -11 -6 -0 -0 -0 -0 -0 -0 -0 -0 -0 -0 -0 -0 -0 -0 -0 -0 -0 -0 -0 -0 -0 -0 -0 -0 -0 -0 -0 -0 -0 -0 -0 -0 -0 -0 -0 -0 -0 -0 -0 -0 -0
-21 -20 -0 -0 -0 -0 -0 -0 -0 -0 -0 -0 -0 -0 -0 -0 -0 -0 -0 -0 -0 -0 -0 -0 -0 -0 -0 -0 -0 -0 -0 -0 -0 -0 -0 -0 -0 -0 -0 -0 -0 -0 -0 -0
-0 -24 -0 -0 -0 -0 -0 -0 -0 -0 -0 -0 -0 -0 -0 -0 -0 -0 -0 -0 -0 -0 -0 -0 -0 -0 -0 -0 -0 -0 -0 -0 -0 -0 -0 -0 -0 -0 -0 -0 -0 -0 -0 -0
-0 -0 -0 -0 -0 -0 -0 -0 -0 -0 -0 -0 -0 -0 -0 -0 -0 -0 -0 -0 -0 -0 -0 -0 -0 -0 -0 -0 -0 -0 -0 -0 -0 -0 -0 -0 -0 -0 -0 -0 -0 -0 -0 -0
-0 -0 -0 -0 -0 -0 -0 -0 -0 -0 -0 -0 -0 -0 -0 -0 -0 -0 -0 -0 -0 -0 -0 -0 -0 -0 -0 -0 -0 -0 -0 -0 -0 -0 -0 -0 -0 -0 -0 -0 -0 -0 -0 -0
-0 -0 -0 -0 -0 -0 -0 -0 -0 -0 -0 -0 -0 -0 -0 -0 -0 -0 -0 -0 -0 -0 -0 -0 -0 -0 -0 -0 -0 -0 -0 -0 -0 -0 -0 -0 -0 -0 -0 -0 -0 -0 -0 -0
-0 -0 -0 -0 -0 -0 -0 -0 -0 -0 -0 -0 -0 -0 -0 -0 -0 -0 -0 -0 -0 -0 -0 -0 -0 -0 -0 -0 -0 -0 -0 -0 -0 -0 -0 -0 -0 -0 -0 -0 -0 -0 -0 -0
-0 -0 -0 -0 -0 -0 -0 -0 -0 -0 -0 -0 -0 -0 -0 -0 -0 -0 -0 -0 -0 -0 -0 -0 -0 -0 -0 -0 -0 -0 -0 -0 -0 -0 -0 -0 -0 -0 -0 -0 -0 -0 -0 -0
-0 -0 -0 -0 -0 -0 -0 -0 -0 -0 -0 -0 -0 -0 -0 -0 -0 -0 -0 -0 -0 -0 -0 -0 -0 -0 -0 -0 -0 -0 -0 -0 -0 -0 -0 -0 -0 -0 -0 -0 -0 -0 -0 -0
-0 -0 -0 -0 -0 -0 -0 -0 -0 -0 -0 -0 -0 -0 -0 -0 -0 -0 -0 -0 -0 -0 -0 -0 -0 -0 -0 -0 -0 -0 -0 -0 -0 -0 -0 -0 -0 -0 -0 -0 -0 -0 -0 -0
-0 -0 -0 -0 -0 -0 -0 -0 -0 -0 -0 -0 -0 -0 -0 -0 -0 -0 -0 -0 -0 -0 -0 -0 -0 -0 -0 -0 -0 -0 -0 -0 -0 -0 -0 -0 -0 -0 -0 -0 -0 -0 -0 -0
-0 -0 -0 -0 -0 -0 -0 -0 -0 -0 -0 -0 -0 -0 -0 -0 -0 -0 -0 -0 -0 -0 -0 -0 -0 -0 -0 -0 -0 -0 -0 -0 -0 -0 -0 -0 -0 -0 -0 -0 -0 -0 -0 -0
-0 -0 -0 -0 -0 -0 -0 -0 -0 -0 -0 -0 -0 -0 -0 -0 -0 -0 -0 -0 -0 -0 -0 -0 -0 -0 -0 -0 -0 -0 -0 -0 -0 -0 -0 -0 -0 -0 -0 -0 -0 -0 -0 -0
-0 -0 -0 -0 -0 -0 -0 -0 -0 -0 -0 -0 -0 -0 -0 -0 -0 -0 -0 -0 -0 -0 -0 -0 -0 -0 -0 -0 -0 -0 -0 -0 -0 -0 -0 -0 -0 -0 -0 -0 -0 -0 -0 -0
-0 -0 -0 -0 -0 -0 -0 -0 -0 -0 -0 -0 -0 -0 -0 -0 -0 -0 -0 -0 -0 -0 -0 -0 -0 -0 -0 -0 -0 -0 -0 -0 -0 -0 -0 -0 -0 -0 -0 -0 -0 -0 -0 -0
-0 -0 -0 -0 -0 -0 -0 -0 -0 -0 -0 -0 -0 -0 -0 -0 -0 -0 -0 -0 -0 -0 -0 -0 -0 -0 -0 -0 -0 -0 -0 -0 -0 -0 -0 -0 -0 -0 -0 -0 -0 -0 -0 -0
-0 -0 -0 -0 -0 -0 -0 -0 -0 -0 -0 -0 -0 -0 -0 -0 -0 -0 -0 -0 -0 -0 -0 -0 -0 -0 -0 -0 -0 -0 -0 -0 -0 -0 -0 -0 -0 -0 -0 -0 -0 -0 -0 -0
-0 -0 -0 -0 -0 -0 -0 -0 -0 -0 -0 -0 -0 -0 -0 -0 -0 -0 -0 -0 -0 -0 -0 -0 -0 -0 -0 -0 -0 -0 -0 -0 -0 -0 -0 -0 -0 -0 -0 -0 -0 -0 -0 -0
-0 -0 -0 -0 -0 -0 -0 -0 -0 -0 -0 -0 -0 -0 -0 -0 -0 -0 -0 -0 -0 -0 -0 -0 -0 -0 -0 -0 -0 -0 -0 -0 -0 -0 -0 -0 -0 -0 -0 -0 -2 -1 -0 -0
-0 -0 -0 -0 -0 -0 -0 -0 -0 -0 -0 -0 -0 -0 -0 -0 -0 -0 -0 -0 -0 -0 -0 -0 -0 -0 -0 -0 -0 -0 -0 -0 -0 -0 -0 -0 -0 -0 -0 -0 -0 -0 -0 -0
-0 -0 -0 -0 -0 -0 -0 -0 -0 -0 -0 -0 -0 -0 -0 -0 -0 -0 -0 -0 -0 -0 -0 -0 -0 -0 -0 -0 -0 -0 -0 -0 -0 -0 -0 -0 -0 -0 -0 -0 -0 -0 -0 -0
-0 -0 -0 -0 -0 -0 -0 -0 -0 -0 -0 -0 -0 -0 -0 -0 -0 -0 -0 -0 -0 -0 -0 -0 -0 -0 -0 -0 -0 -0 -0 -0 -0 -0 -0 -0 -0 -0 -0 -0 -0 -0 -0 -0
Wind_Speed
11 5 7 6 6 15 16 23 11 17 15 23 9 10 14 12 9 8 8 8 7 8 8 4 5 7 9 9 9 11 13 14 15 12 11 10 10 10 10 11 11 12 10 8
16 9 9 10 10 10 17 18 20 18 21 26 18 16 10 9 8 10 10 9 7 8 8 8 5 6 5 9 10 10 12 13 10 9 10 10 11 11 10 10 10 10 10 11
19 7 6 12 15 15 12 13 14 15 25 23 14 13 7 9 8 10 9 8 6 7 7 7 5 4 6 7 8 12 11 10 11 12 12 11 11 12 12 12 11 11 10 10
10 5 16 10 9 14 22 19 17 15 15 19 12 10 7 8 6 7 5 3 2 1 2 4 3 0 1 3 6 8 8 9 10 10 9 9 12 10 11 9 10 10 10 10
9 11 9 5 5 8 9 9 8 11 13 18 6 1 7 5 2 1 1 1 2 3 2 3 3 1 5 4 3 3 6 6 8 9 10 11 11 12 12 11 9 10 9 8
4 9 14 6 14 8 6 9 6 3 5 7 2 3 4 3 5 5 5 3 4 4 4 6 5 3 4 4 4 5 5 5 5 5 7 8 9 9 8 8 10 8 8 10
15 8 5 6 6 7 7 6 4 3 2 2 4 3 1 3 7 4 5 7 5 6 6 5 4 4 5 2 1 1 3 4 4 5 7 7 6 4 6 6 7 6 7 7
7 5 9 7 4 11 5 2 6 4 3 5 7 8 10 7 8 7 8 8 7 6 7 6 6 5 4 4 2 2 3 3 4 4 3 4 7 6 7 8 8 7 6 5
9 6 2 1 1 4 6 7 5 7 6 5 4 8 12 7 8 8 7 7 5 5 6 6 7 6 6 5 3 2 3 3 2 3 3 5 6 6 5 5 5 6 6 6
6 1 4 5 5 5 5 8 7 7 8 6 9 8 9 8 7 8 8 8 7 7 10 9 7 6 5 5 4 2 2 3 4 5 4 4 3 4 5 5 5 5 5 5
5 5 7 7 6 8 10 10 13 12 11 8 7 11 10 9 9 9 8 8 8 9 9 9 8 10 8 7 5 4 1 2 2 3 5 4 4 5 5 4 7 7 6 6
0 9 4 6 5 9 12 11 10 13 12 9 10 13 10 10 9 9 10 9 9 10 9 10 10 10 11 9 6 5 4 2 1 3 3 3 4 2 3 6 10 9 10 9
2 12 14 11 9 11 10 11 11 12 9 11 11 9 10 8 9 11 11 11 12 11 10 10 9 10 11 10 7 7 5 4 3 3 2 3 2 3 4 3 6 9 11 11
10 8 20 17 10 11 13 12 15 12 12 11 10 10 10 9 8 9 10 9 8 9 10 10 11 13 12 10 9 9 7 11 4 3 3 2 2 2 3 3 3 3 4 5
19 18 16 16 18 18 15 15 18 15 13 14 11 11 11 13 12 11 10 9 9 11 12 13 14 14 13 12 11 10 7 5 4 4 4 5 4 4 3 2 2 3 3 4
20 22 22 23 20 20 19 18 18 15 14 13 12 13 12 12 11 11 12 11 12 11 12 13 12 10 11 11 10 9 9 16 11 5 4 4 4 4 3 3 3 3 2 3
23 24 21 20 18 18 18 15 14 13 13 13 13 12 11 10 11 10 9 8 9 10 9 10 9 9 9 11 9 6 5 6 12 6 6 5 4 3 1 2 2 2 2 3
16 15 15 15 14 14 15 14 13 13 12 10 10 10 11 11 9 9 8 6 7 10 11 10 11 9 8 8 8 7 7 7 6 5 3 2 1 1 2 1 2 2 2 3
16 16 15 16 13 13 12 12 11 10 10 9 10 9 7 7 8 7 6 8 9 9 9 8 16 11 8 10 8 4 6 7 6 4 3 6 5 3 3 2 2 2 2 2
15 14 13 13 13 13 11 10 9 9 9 8 7 7 8 8 7 6 5 5 5 3 5 7 7 6 7 8 10 4 4 4 5 4 4 4 3 4 3 5 5 3 3 3
12 11 11 10 9 8 8 7 7 8 7 7 7 7 6 6 6 6 6 4 6 9 9 12 7 5 4 8 5 4 4 4 4 4 4 4 5 4 4 4 4 3 4 4
7 7 8 8 7 7 6 6 6 5 6 6 6 6 6 7 7 6 5 4 6 16 8 4 4 11 9 12 3 4 4 4 3 3 4 4 4 5 5 4 4 4 4 4
6 6 5 6 6 5 6 6 6 5 6 6 6 6 5 4 4 4 6 6 6 10 5 4 12 16 17 4 4 5 5 5 4 4 3 3 4 4 4 4 4 4 3 4
6 6 6 5 5 5 6 6 6 6 5 5 5 5 4 4 4 3 4 10 14 13 8 8 11 17 16 4 4 4 5 5 5 4 5 10 3 3 4 4 6 6 3 6
6 6 6 6 6 4 5 5 5 5 5 5 5 5 6 4 3 5 4 6 13 11 6 11 17 16 5 4 4 5 5 5 4 5 4 3 5 4 4 4 4 4 4 4
7 6 5 6 5 4 4 4 4 4 4 5 5 4 5 4 4 5 4 9 6 11 6 6 6 6 5 6 6 6 5 6 6 5 7 5 5 4 4 4 4 3 4 4
6 12 6 6 5 4 4 5 4 4 5 6 8 6 4 4 5 7 9 6 6 6 7 6 6 8 7 7 7 6 6 5 7 5 2 3 4 4 4 4 4 4 4 4
Wind_Direction
233 186 175 212 192 195 204 220 209 245 224 261 242 242 255 262 270 271 263 259 250 262 285 277 224 198 191 203 196 192 191 194 205 199 197 182 176 190 183 180 176 173 160 165
249 204 205 246 228 200 214 228 245 258 269 265 283 280 277 253 263 265 263 253 239 235 259 279 266 218 199 178 180 178 189 197 192 175 174 174 159 179 178 182 171 164 166 176
246 180 164 258 224 211 214 212 220 228 247 274 276 268 245 267 250 256 261 260 234 225 236 259 267 261 219 172 155 176 183 185 177 175 180 171 168 176 174 176 163 173 173 186
249 150 219 240 192 201 214 234 235 243 260 270 259 271 252 233 236 238 244 285 304 290 288 286 300 250 93 172 169 159 162 169 170 176 175 164 163 181 164 169 172 175 167 180
219 221 273 264 185 161 167 252 218 225 239 256 294 4 275 180 139 110 35 66 25 344 320 334 321 98 118 111 99 127 156 158 161 169 167 166 167 174 168 164 174 175 163 168
183 216 226 207 231 233 128 260 244 194 264 277 116 207 275 132 93 73 68 57 30 10 33 45 5 50 104 125 142 183 190 177 149 144 150 166 172 170 172 180 176 170 170 178
218 237 258 239 157 121 148 223 148 150 242 176 142 213 18 63 75 83 70 47 36 58 63 32 33 84 76 105 229 285 141 139 149 155 157 161 142 137 143 137 134 151 166 170
209 239 244 176 77 193 197 123 131 115 78 109 129 104 82 51 54 52 62 48 18 51 47 25 28 63 59 24 6 100 125 146 157 151 125 132 143 132 142 145 150 152 156 157
186 201 327 95 109 123 138 139 139 119 104 107 94 83 92 67 65 52 40 48 31 42 61 39 30 38 58 359 351 112 135 165 158 121 136 144 139 145 139 158 168 167 173 178
130 95 60 39 42 64 93 107 102 100 102 103 109 90 78 79 57 61 44 36 32 29 44 30 21 36 40 18 30 112 179 175 150 149 149 152 133 145 141 154 158 165 170 173
65 94 77 43 53 82 85 89 87 73 67 56 86 76 79 63 47 43 41 37 39 38 41 32 31 30 15 8 20 48 80 141 163 158 162 169 171 170 174 195 183 181 190 171
250 171 100 116 74 74 82 72 65 82 74 60 72 75 64 57 49 42 38 32 40 41 43 36 35 27 10 2 13 36 55 66 152 152 152 161 159 128 188 175 191 194 173 177
28 65 74 82 58 56 61 63 61 69 62 71 56 69 68 63 50 49 39 36 34 33 33 32 34 31 8 1 16 28 35 48 78 92 121 149 143 157 148 36 192 186 177 177
42 64 55 48 67 63 69 69 68 64 57 59 62 59 62 64 58 53 45 40 46 49 44 37 36 29 11 13 24 28 33 36 36 53 87 107 126 140 143 156 151 125 171 166
45 57 69 68 63 61 63 66 65 60 60 62 55 57 57 56 50 48 45 40 46 47 41 38 36 26 13 17 27 30 36 33 34 44 49 61 56 55 61 91 106 109 103 63
43 49 52 54 53 48 50 50 57 51 49 51 53 50 51 55 55 49 45 40 47 42 38 39 36 23 20 22 25 25 23 34 41 34 39 64 81 75 71 80 105 135 137 145
38 32 37 46 48 47 47 46 48 46 47 45 41 35 36 39 42 35 30 26 41 40 28 28 22 15 16 24 21 24 23 22 30 32 32 26 24 41 113 160 186 195 203 208
46 47 47 48 46 47 43 43 42 41 37 36 40 44 38 36 29 20 17 21 36 40 28 16 15 13 13 11 20 18 18 15 13 15 10 17 16 13 353 321 272 223 230 231
31 37 38 39 34 42 40 35 32 34 32 33 37 37 33 34 23 14 14 37 31 27 6 0 11 13 7 1 11 10 4 357 353 349 357 1 2 0 336 309 283 273 255 221
25 30 34 36 33 33 31 22 23 29 22 23 26 28 26 19 14 16 23 58 43 320 346 352 1 351 344 341 10 9 356 347 335 325 329 328 316 302 296 292 284 264 252 238
13 14 22 25 28 30 30 16 16 21 9 16 23 18 7 358 4 0 10 359 353 347 351 352 351 336 315 336 15 358 353 343 335 332 326 318 315 308 292 279 270 256 248 235
356 3 6 6 12 12 11 9 10 9 8 6 3 4 359 356 352 344 337 324 331 341 332 335 332 326 329 347 11 353 337 329 316 312 313 310 305 301 297 290 278 275 260 249
351 351 355 6 3 350 346 2 357 2 359 352 348 346 342 320 317 329 332 326 329 317 332 323 321 328 324 24 346 332 325 319 315 307 295 279 275 268 271 277 268 260 266 269
336 343 337 338 339 350 353 342 346 340 334 322 317 314 313 314 310 281 288 317 322 326 330 320 323 324 326 350 322 310 303 295 290 290 287 297 279 279 281 281 294 293 288 290
323 312 316 328 328 317 316 315 316 310 314 306 296 293 293 283 252 303 302 308 321 326 310 322 323 326 318 285 287 290 287 289 282 267 267 272 276 271 275 273 270 266 263 269
313 312 299 287 275 285 290 302 294 304 312 312 303 295 293 283 294 319 296 315 316 317 312 302 298 303 313 306 297 287 285 292 297 292 291 284 281 280 280 276 272 271 274 269
322 337 320 327 313 300 293 275 311 299 311 304 301 300 283 291 300 320 316 306 303 303 302 302 301 305 303 306 300 296 291 288 297 298 296 292 283 269 267 264 265 263 261 263